CW4778 Auckland NZ current weather conditions

sailwx.info

Wind from 065 at 5 knots gusting 10

Air temperature 22.8° C
Dewpoint 19.9° C

Last reported at 2015-Jan-31 04:38 UTC.
Time now 2015-Jan-31 05:33 UTC

Location: S 36°52' E 174°44'.
View on Google Maps.

See reports from other nearby stations

  
Tides and Currents Weather Stations Pressure Air Temp Water Temp Dewpoint Dewpoint Depression Visibility Wind Speed Wind Dir Waves Ship Positions
date/time (UTC)wind fromknots sea level pressurealtimeterstation pressurevisibilityair tempwater tempwave heightnotes
2015-Jan-31 04:38 065 5 gusting 10 22.8
2015-Jan-31 04:28 001 6 gusting 10 22.8
2015-Jan-31 04:18 020 5 gusting 12 22.8
2015-Jan-31 04:08 007 2 gusting 13 22.8
2015-Jan-31 03:58 036 6 gusting 14 22.8
2015-Jan-31 03:48 074 4 gusting 13 22.8
2015-Jan-31 03:38 050 6 gusting 13 22.8
2015-Jan-31 03:28 046 4 gusting 12 22.8
2015-Jan-31 03:18 005 4 gusting 11 23.3
2015-Jan-31 03:08 058 4 gusting 12 23.3
2015-Jan-31 02:58 046 5 gusting 11 23.3
2015-Jan-31 02:48 035 5 gusting 13 22.8
2015-Jan-31 02:38 071 3 gusting 13 22.8
2015-Jan-31 02:18 016 7 gusting 13 22.2
2015-Jan-31 02:08 017 5 gusting 13 22.8
2015-Jan-31 01:58 058 8 gusting 13 22.8
2015-Jan-31 01:38 049 5 gusting 17 23.9
2015-Jan-31 01:28 027 7 gusting 13 23.3
2015-Jan-31 01:18 062 6 gusting 11 23.3
2015-Jan-31 01:08 22.8
2015-Jan-31 00:58 029 5 gusting 14 22.8
2015-Jan-31 00:48 019 6 gusting 13 22.8
2015-Jan-31 00:38 050 4 gusting 13 22.8
2015-Jan-31 00:18 068 7 gusting 14 22.2
2015-Jan-31 00:08 060 7 gusting 12 22.2
2015-Jan-30 23:58 044 5 gusting 13 22.2
2015-Jan-30 23:48 050 5 gusting 11 22.2
2015-Jan-30 23:38 014 6 gusting 13 22.2
2015-Jan-30 23:28 342 3 gusting 13 22.2
2015-Jan-30 22:58 033 5 gusting 12 21.7
2015-Jan-30 22:48 038 6 gusting 11 22.2
2015-Jan-30 22:38 014 6 gusting 13 22.2
2015-Jan-30 22:28 358 5 gusting 12 21.7
2015-Jan-30 22:18 034 4 gusting 13 21.7
2015-Jan-30 22:08 050 4 gusting 8 21.1
2015-Jan-30 21:58 063 1 gusting 5 21.1
2015-Jan-30 21:48 044 21.1
2015-Jan-30 21:38 347 0 gusting 2 21.1
2015-Jan-30 21:18 351 20.0
2015-Jan-30 21:08 347 20.0
2015-Jan-30 20:58 326 20.0
2015-Jan-30 20:48 332 19.4
2015-Jan-30 20:38 19.4
2015-Jan-30 20:28 351 0 gusting 6 19.4
2015-Jan-30 20:18 347 19.4
2015-Jan-30 20:08 350 19.4
2015-Jan-30 19:48 342 18.9
2015-Jan-30 19:38 345 18.9
2015-Jan-30 19:18 016 5 gusting 8 18.9
2015-Jan-30 18:58 054 18.9
2015-Jan-30 18:48 340 18.9
2015-Jan-30 18:38 338 18.9
2015-Jan-30 18:28 338 18.9
2015-Jan-30 18:18 346 18.9
2015-Jan-30 17:58 356 0 gusting 7 19.4
2015-Jan-30 17:38 058 1 gusting 8 19.4
2015-Jan-30 17:18 338 19.4
2015-Jan-30 16:48 358 20.6
2015-Jan-30 16:38 359 20.6
2015-Jan-30 16:18 001 3 gusting 7 20.6
2015-Jan-30 16:08 003 20.6
2015-Jan-30 15:58 009 2 gusting 6 20.6
2015-Jan-30 15:48 057 0 gusting 6 20.6
2015-Jan-30 15:38 041 1 gusting 7 20.6
2015-Jan-30 15:28 014 1 gusting 10 20.6
2015-Jan-30 14:58 034 4 gusting 12 20.6
2015-Jan-30 14:48 047 1 gusting 13 20.6
2015-Jan-30 14:38 044 2 gusting 10 20.6
2015-Jan-30 14:08 060 2 gusting 10 20.6
2015-Jan-30 13:58 053 3 gusting 10 20.6
2015-Jan-30 13:38 352 1 gusting 10 20.6
2015-Jan-30 13:28 020 20.6
2015-Jan-30 13:08 043 1 gusting 10 20.6
2015-Jan-30 12:58 352 2 gusting 10 21.1
2015-Jan-30 12:38 041 0 gusting 10 20.6
2015-Jan-30 12:28 032 3 gusting 11 20.6
2015-Jan-30 12:18 051 1 gusting 12 21.1
2015-Jan-30 12:08 025 4 gusting 13 21.1
2015-Jan-30 11:38 029 5 gusting 13 21.1
2015-Jan-30 11:18 040 4 gusting 12 21.1
2015-Jan-30 11:08 040 1 gusting 8 21.7
2015-Jan-30 10:58 068 4 gusting 8 21.7
2015-Jan-30 10:38 036 6 gusting 12 21.7
2015-Jan-30 10:28 045 4 gusting 10 21.7
2015-Jan-30 10:18 018 1 gusting 11 21.1
2015-Jan-30 10:08 050 6 gusting 12 21.1
2015-Jan-30 09:48 21.1
2015-Jan-30 09:38 029 4 gusting 15 21.1
2015-Jan-30 09:28 052 4 gusting 10 21.7
2015-Jan-30 09:18 053 1 gusting 7 21.7
2015-Jan-30 09:08 060 4 gusting 8 21.7
2015-Jan-30 08:58 044 5 gusting 10 21.7
2015-Jan-30 08:48 053 6 gusting 13 21.7
2015-Jan-30 08:38 067 2 gusting 11 21.7
2015-Jan-30 08:28 029 6 gusting 11 21.7
2015-Jan-30 08:18 024 0 gusting 10 21.7
2015-Jan-30 08:08 031 4 gusting 10 21.7
2015-Jan-30 07:58 012 5 gusting 13 21.7
2015-Jan-30 07:48 020 5 gusting 14 21.7
2015-Jan-30 07:38 012 6 gusting 13 22.2
2015-Jan-30 07:28 037 6 gusting 14 22.2
2015-Jan-30 07:18 050 3 gusting 12 22.2
2015-Jan-30 07:08 024 8 gusting 13 22.2
2015-Jan-30 06:58 016 5 gusting 12 22.2
2015-Jan-30 06:48 027 5 gusting 12 22.8
2015-Jan-30 06:38 070 5 gusting 12 22.8
2015-Jan-30 06:28 012 5 gusting 14 22.8
2015-Jan-30 06:18 023 4 gusting 10 22.8
2015-Jan-30 06:08 050 7 gusting 14 22.8
2015-Jan-30 05:58 020 5 gusting 12 22.8
2015-Jan-30 05:48 019 5 gusting 13 23.3
2015-Jan-30 05:28 034 2 gusting 12 23.9
2015-Jan-30 05:18 048 5 gusting 13 23.9
2015-Jan-30 05:08 060 4 gusting 10 24.4
2015-Jan-30 04:58 054 4 gusting 10 24.4
2015-Jan-30 04:48 057 1 gusting 13 24.4
2015-Jan-30 04:38 050 2 gusting 7 25.0
2015-Jan-30 04:28 025 2 gusting 13 25.0
2015-Jan-30 04:18 014 6 gusting 13 25.6
2015-Jan-30 04:08 353 9 gusting 13 25.0
2015-Jan-30 03:58 037 4 gusting 13 25.0
2015-Jan-30 03:48 054 6 gusting 13 25.6
2015-Jan-30 03:38 053 6 gusting 13 25.6
2015-Jan-30 03:28 346 6 gusting 14 25.6
2015-Jan-30 03:18 010 6 gusting 13 25.6
2015-Jan-30 03:08 358 6 gusting 14 25.6
2015-Jan-30 02:58 066 7 gusting 15 25.6
2015-Jan-30 02:48 011 7 gusting 14 26.1
2015-Jan-30 02:38 048 7 gusting 13 26.1
2015-Jan-30 02:28 355 10 gusting 15 26.1
2015-Jan-30 02:08 006 7 gusting 13 26.1
2015-Jan-30 01:58 047 5 gusting 13 25.0
2015-Jan-30 01:48 059 6 gusting 15 25.6
2015-Jan-30 01:38 032 7 gusting 13 26.7
2015-Jan-30 01:08 039 6 gusting 13 25.6
2015-Jan-30 00:48 057 6 gusting 13 26.7
2015-Jan-30 00:28 065 1 gusting 10 26.1
2015-Jan-30 00:18 063 2 gusting 10 24.4
2015-Jan-30 00:08 067 9 gusting 13 24.4
2015-Jan-29 23:58 066 5 gusting 12 24.4
2015-Jan-29 23:38 085 7 gusting 13 24.4
2015-Jan-29 23:28 074 8 gusting 14 24.4
2015-Jan-29 23:18 112 7 gusting 14 26.7
2015-Jan-29 23:08 065 7 gusting 13 25.6
2015-Jan-29 22:58 090 10 gusting 15 25.6
2015-Jan-29 22:28 107 5 gusting 12 23.3
2015-Jan-29 22:18 061 6 gusting 13 23.3
2015-Jan-29 22:08 109 10 gusting 15 23.3
2015-Jan-29 21:58 042 6 gusting 14 24.4
2015-Jan-29 21:48 062 10 gusting 15 23.9
2015-Jan-29 21:38 009 5 gusting 15 24.4
2015-Jan-29 21:28 068 7 gusting 13 23.9
2015-Jan-29 21:18 082 5 gusting 17 23.3
2015-Jan-29 20:58 071 10 gusting 14 23.3
2015-Jan-29 20:48 065 8 gusting 17 23.3
2015-Jan-29 20:38 047 6 gusting 17 23.3
2015-Jan-29 20:28 059 8 gusting 14 23.3
2015-Jan-29 20:18 036 1 gusting 13 22.2
2015-Jan-29 19:58 127 2 gusting 11 22.8
2015-Jan-29 19:48 064 4 gusting 12 21.7
2015-Jan-29 19:38 085 7 gusting 14 21.7
2015-Jan-29 19:18 061 6 gusting 15 21.7
2015-Jan-29 18:58 061 6 gusting 12 21.7
2015-Jan-29 18:48 074 1 gusting 10 21.1
2015-Jan-29 18:38 070 1 gusting 7 20.6
2015-Jan-29 18:28 092 1 gusting 7 20.6
2015-Jan-29 18:18 061 0 gusting 6 20.6
2015-Jan-29 18:08 107 3 gusting 7 20.0
2015-Jan-29 17:58 088 5 gusting 10 20.0
2015-Jan-29 17:48 104 5 gusting 7 19.4
2015-Jan-29 17:38 107 4 gusting 7 19.4
2015-Jan-29 17:18 135 18.9
2015-Jan-29 17:08 123 2 gusting 7 19.4
2015-Jan-29 16:58 123 19.4
2015-Jan-29 16:38 105 0 gusting 6 19.4
2015-Jan-29 16:28 133 19.4
2015-Jan-29 16:18 123 2 gusting 6 19.4
2015-Jan-29 16:08 104 19.4
2015-Jan-29 15:58 125 19.4
2015-Jan-29 15:48 123 1 gusting 7 20.0
2015-Jan-29 15:28 122 1 gusting 7 20.0
2015-Jan-29 15:18 088 4 gusting 8 20.6
2015-Jan-29 15:08 108 4 gusting 7 20.6
2015-Jan-29 14:58 088 0 gusting 10 20.6
2015-Jan-29 14:48 091 2 gusting 8 20.6
2015-Jan-29 14:38 078 1 gusting 8 20.6
2015-Jan-29 14:28 095 3 gusting 10 20.6
2015-Jan-29 14:18 100 4 gusting 7 20.6
2015-Jan-29 13:58 095 1 gusting 7 20.6
2015-Jan-29 13:48 074 0 gusting 6 20.6
2015-Jan-29 13:28 095 1 gusting 7 20.6
2015-Jan-29 13:18 082 3 gusting 8 20.6
2015-Jan-29 13:08 099 3 gusting 10 20.6
2015-Jan-29 12:58 101 4 gusting 8 20.6
2015-Jan-29 12:48 088 1 gusting 12 20.6
2015-Jan-29 12:38 095 3 gusting 13 20.6
2015-Jan-29 12:28 105 4 gusting 8 20.6
2015-Jan-29 12:18 096 6 gusting 12 20.6
2015-Jan-29 12:08 087 5 gusting 12 20.6
2015-Jan-29 11:58 108 6 gusting 12 20.6
2015-Jan-29 11:48 095 8 gusting 15 20.6
2015-Jan-29 11:28 073 2 gusting 7 20.6
2015-Jan-29 11:18 107 20.6
2015-Jan-29 11:08 053 0 gusting 6 20.6
2015-Jan-29 10:58 103 0 gusting 7 20.6
2015-Jan-29 10:48 111 0 gusting 7 20.6
2015-Jan-29 10:38 081 1 gusting 7 20.6
2015-Jan-29 10:28 089 4 gusting 13 21.1
2015-Jan-29 10:08 092 2 gusting 8 21.1
2015-Jan-29 09:58 062 2 gusting 12 21.1
2015-Jan-29 09:48 095 5 gusting 13 21.1
2015-Jan-29 09:38 082 6 gusting 12 21.1
2015-Jan-29 09:28 076 21.1
2015-Jan-29 09:18 103 4 gusting 8 21.7
2015-Jan-29 08:48 101 1 gusting 11 21.7
2015-Jan-29 08:38 058 5 gusting 8 21.7
2015-Jan-29 08:28 067 1 gusting 13 21.7
2015-Jan-29 08:18 103 1 gusting 7 21.7
2015-Jan-29 08:08 076 2 gusting 10 21.7
2015-Jan-29 07:58 082 1 gusting 8 22.2
2015-Jan-29 07:48 071 5 gusting 10 22.2
2015-Jan-29 07:38 060 2 gusting 10 22.2
2015-Jan-29 07:28 088 6 gusting 10 22.2
2015-Jan-29 07:18 037 5 gusting 11 22.2
2015-Jan-29 07:08 048 6 gusting 12 22.8
2015-Jan-29 06:58 061 6 gusting 14 22.8
2015-Jan-29 06:48 044 7 gusting 14 23.3
2015-Jan-29 05:48 076 5 gusting 13 23.9
2015-Jan-29 05:38 058 6 gusting 18 24.4
2015-Jan-29 05:28 066 8 gusting 18 24.4
2015-Jan-29 05:18 068 8 gusting 17 24.4
2015-Jan-29 05:08 078 10 gusting 17 25.0